CW6892 Weather Reports


Display with metric or nautical units.
time (UTC)temp
F
wind
direction
speed
MPH
gust
MPH
rain 1hr
in
rain 24hr
in
rain mn
in
humidity
%
barometer
mb
20260507124458 67 268 0.0 0.0 0.00 0.00 0.00 27 1012.1
20260507123455 68 268 0.0 0.0 0.00 0.00 0.00 27 1012.1
20260507122503 69 294 3.0 13.0 0.00 0.00 0.00 27 1012.0
20260507121448 69 11 4.0 13.0 0.00 0.00 0.00 27 1012.2
20260507120510 64 75 0.0 4.0 0.00 0.00 0.00 31 1012.3
20260507115453 64 75 0.0 0.0 0.00 0.00 0.00 31 1012.3
20260507114442 66 75 0.0 2.0 0.00 0.00 0.00 30 1012.4
20260507113409 66 75 0.0 0.0 0.00 0.00 0.00 30 1012.5
20260507112432 66 75 0.0 1.0 0.00 0.00 0.00 30 1012.7
20260507111412 65 75 0.0 0.0 0.00 0.00 0.00 31 1012.6
20260507110419 64 75 0.0 3.0 0.00 0.00 0.00 32 1012.7
20260507105436 64 75 0.0 0.0 0.00 0.00 0.00 32 1012.8
20260507104408 64 75 0.0 0.0 0.00 0.00 0.00 32 1012.9
20260507102235 66 75 0.0 0.0 0.00 0.00 0.00 30 1013.0
20260507101248 66 75 0.0 1.0 0.00 0.00 0.00 30 1013.1
20260507095155 66 71 1.0 6.0 0.00 0.00 0.00 30 1013.1
20260507094137 64 73 2.0 6.0 0.00 0.00 0.00 32 1013.1
20260507091951 65 66 1.0 4.0 0.00 0.00 0.00 32 1013.3
20260507090943 64 67 2.0 4.0 0.00 0.00 0.00 32 1013.3
20260507084905 64 63 0.0 2.0 0.00 0.00 0.00 32 1013.4
20260507083924 63 59 0.0 0.0 0.00 0.00 0.00 32 1013.5
20260507082850 63 59 0.0 1.0 0.00 0.00 0.00 34 1013.5
20260507081818 64 57 0.0 2.0 0.00 0.00 0.00 33 1013.5
20260507080841 64 44 0.0 2.0 0.00 0.00 0.00 32 1013.5
20260507074732 67 349 0.0 0.0 0.00 0.00 0.00 29 1013.7
20260507073747 67 349 0.0 0.0 0.00 0.00 0.00 29 1013.8
20260507072726 67 347 2.0 3.0 0.00 0.00 0.00 29 1013.9
20260507071708 66 289 0.0 1.0 0.00 0.00 0.00 30 1013.9
20260507070713 65 251 0.0 0.0 0.00 0.00 0.00 31 1013.9
20260507065656 65 251 0.0 0.0 0.00 0.00 0.00 32 1014.1
20260507064708 66 251 0.0 0.0 0.00 0.00 0.00 31 1014.0
20260507063729 66 251 0.0 0.0 0.00 0.00 0.00 30 1013.9
20260507062715 67 251 0.0 0.0 0.00 0.00 0.00 30 1013.9
20260507060642 66 251 0.0 0.0 0.00 0.00 0.00 31 1013.9
20260507055656 67 251 0.0 0.0 0.00 0.00 0.00 30 1013.9
20260507054647 67 251 0.0 0.0 0.00 0.00 0.00 30 1013.8
20260507053708 68 251 0.0 0.0 0.00 0.00 0.00 29 1013.8
20260507052713 68 251 0.0 0.0 0.00 0.00 0.00 29 1013.9
20260507051646 69 251 0.0 0.0 0.00 0.00 0.00 28 1013.9
20260507050626 70 251 0.0 0.0 0.00 0.00 0.00 27 1013.9
20260507044527 70 251 0.0 0.0 0.00 0.00 0.00 27 1014.0
20260507043517 70 251 0.0 0.0 0.00 0.00 0.00 27 1013.8
20260507042538 70 251 0.0 0.0 0.00 0.00 0.00 27 1013.7
20260507041526 70 251 0.0 0.0 0.00 0.00 0.00 27 1013.5
20260507040458 70 251 0.0 0.0 0.00 0.00 0.00 28 1013.3
20260507035512 70 251 0.0 0.0 0.00 0.00 0.00 28 1013.3
20260507034522 71 251 0.0 0.0 0.00 0.00 0.00 28 1013.2
20260507033450 71 251 0.0 0.0 0.00 0.00 0.00 28 1013.1
20260507032456 71 252 0.0 0.0 0.00 0.00 0.00 27 1012.8
20260507031430 72 252 0.0 0.0 0.00 0.00 0.00 26 1012.6
20260507030453 73 252 0.0 1.0 0.00 0.00 0.00 25 1012.4
20260507025423 73 251 1.0 6.0 0.00 0.00 0.00 25 1012.3
20260507024402 74 235 1.0 9.0 0.00 0.00 0.00 24 1012.4
20260507023425 74 237 3.0 9.0 0.00 0.00 0.00 24 1012.3
20260507022412 74 248 2.0 8.0 0.00 0.00 0.00 24 1012.1
20260507020255 75 233 2.0 10.0 0.00 0.00 0.00 24 1011.9
20260507015249 76 242 2.0 10.0 0.00 0.00 0.00 23 1011.8
20260507014233 76 247 3.0 10.0 0.00 0.00 0.00 22 1011.8
20260507013242 77 254 5.0 11.0 0.00 0.00 0.00 22 1011.7
20260507012306 77 221 3.0 12.0 0.00 0.00 0.00 22 1011.7
20260507010209 78 286 3.0 11.0 0.00 0.00 0.00 21 1011.7
20260507005229 77 225 4.0 10.0 0.00 0.00 0.00 21 1011.7
20260507004211 78 203 4.0 8.0 0.00 0.00 0.00 22 1011.7
20260507003142 78 240 4.0 10.0 0.00 0.00 0.00 22 1011.7
20260507001038 77 240 5.0 11.0 0.00 0.00 0.00 22 1011.7
20260506234952 78 252 6.0 17.0 0.00 0.00 0.00 21 1011.7
20260506233938 78 278 6.0 17.0 0.00 0.00 0.00 21 1011.7
20260506231831 77 248 7.0 17.0 0.00 0.00 0.00 22 1011.6
20260506224530 77 215 7.0 11.0 0.00 0.00 0.00 22 1012.0
20260506223545 78 216 5.0 12.0 0.00 0.00 0.00 22 1012.2
20260506222602 78 240 5.0 12.0 0.00 0.00 0.00 21 1012.4
20260506221614 77 196 7.0 12.0 0.00 0.00 0.00 21 1012.5
20260506220613 78 238 3.0 9.0 0.00 0.00 0.00 20 1012.6
20260506215612 77 227 4.0 15.0 0.00 0.00 0.00 22 1012.6
20260506214606 76 264 7.0 16.0 0.00 0.00 0.00 22 1012.9
20260506213630 77 243 7.0 16.0 0.00 0.00 0.00 22 1013.0
20260506212648 76 197 7.0 16.0 0.00 0.00 0.00 23 1013.0
20260506211619 75 190 8.0 16.0 0.00 0.00 0.00 24 1013.2
20260506205517 74 200 7.0 18.0 0.00 0.00 0.00 25 1013.5
20260506204501 75 202 7.0 18.0 0.00 0.00 0.00 24 1013.7
20260506203441 75 248 6.0 12.0 0.00 0.00 0.00 25 1013.8
20260506202505 75 219 6.0 12.0 0.00 0.00 0.00 25 1013.9
20260506201454 74 188 4.0 13.0 0.00 0.00 0.00 25 1013.9
20260506200519 74 275 5.0 14.0 0.00 0.00 0.00 25 1014.1
20260506195516 73 219 6.0 14.0 0.00 0.00 0.00 26 1014.2
20260506194530 73 190 4.0 16.0 0.00 0.00 0.00 26 1014.3
20260506191244 72 212 6.0 14.0 0.00 0.00 0.00 27 1014.5
20260506185138 71 271 6.0 12.0 0.00 0.00 0.00 28 1014.5
20260506184202 71 183 4.0 13.0 0.00 0.00 0.00 28 1014.6
20260506183140 71 140 6.0 13.0 0.00 0.00 0.00 28 1014.8
20260506182107 71 215 5.0 9.0 0.00 0.00 0.00 28 1015.0
20260506181051 71 225 4.0 11.0 0.00 0.00 0.00 28 1015.1
20260506175108 70 205 4.0 11.0 0.00 0.00 0.00 29 1015.3
20260506172930 70 202 2.0 9.0 0.00 0.00 0.00 30 1015.3
20260506171945 69 228 4.0 9.0 0.00 0.00 0.00 31 1015.3
20260506170952 68 202 3.0 7.0 0.00 0.00 0.00 31 1015.2
20260506164819 67 236 1.0 6.0 0.00 0.00 0.00 33 1015.1
20260506163835 67 211 2.0 0.0 0.00 0.00 0.00 33 1015.0
20260506162818 67 237 2.0 7.0 0.00 0.00 0.00 33 1015.0
20260506161747 66 227 1.0 0.0 0.00 0.00 0.00 34 1015.0
20260506160748 66 199 4.0 8.0 0.00 0.00 0.00 36 1015.0
20260506155751 65 215 3.0 7.0 0.00 0.00 0.00 36 1015.0
20260506154733 65 207 3.0 8.0 0.00 0.00 0.00 37 1014.9
20260506152546 64 179 3.0 9.0 0.00 0.00 0.00 38 1014.9
20260506151533 65 161 2.0 7.0 0.00 0.00 0.00 37 1015.0
20260506150527 64 142 0.0 5.0 0.00 0.00 0.00 37 1015.0
20260506145455 64 141 0.0 7.0 0.00 0.00 0.00 38 1014.9
20260506144429 63 140 0.0 0.0 0.00 0.00 0.00 39 1014.9
20260506143438 63 126 0.0 0.0 0.00 0.00 0.00 39 1014.9
20260506141327 62 118 0.0 0.0 0.00 0.00 0.00 41 1014.7
20260506140342 61 117 0.0 0.0 0.00 0.00 0.00 42 1014.6
20260506135354 60 118 0.0 0.0 0.00 0.00 0.00 44 1014.5
20260506134340 58 118 0.0 0.0 0.00 0.00 0.00 46 1014.3
20260506133351 57 118 0.0 0.0 0.00 0.00 0.00 48 1014.3
20260506132323 56 117 0.0 0.0 0.00 0.00 0.00 49 1014.1
20260506131304 55 124 0.0 0.0 0.00 0.00 0.00 50 1013.9
20260506130317 55 148 0.0 0.0 0.00 0.00 0.00 50 1013.9
20260506125331 55 166 0.0 0.0 0.00 0.00 0.00 50 1013.7